Weather History for Deer Park, WA

Change the Weather History Date:

Friday, January 25, 2013

  Actual Average Record
Temperature  
Mean Temperature 33 °F 28 °F  
Max Temperature 36 °F 35 °F 46 °F (2005)
Min Temperature 30 °F 22 °F -3 °F (2009)
Degree Days  
Heating Degree Days 32 37  
Month to date heating degree days 1104 953  
Since 1 July heating degree days 3897 4180  
Cooling Degree Days 0 0  
Month to date cooling degree days 0 0  
Year to date cooling degree days 0 0  
Moisture  
Dew Point 33 °F    
Average Humidity 96    
Maximum Humidity 100    
Minimum Humidity 92    
Precipitation  
Precipitation 0.14 in 0.06 in 0.19 in (2003)
Month to date precipitation 1.25 2.24  
Year to date precipitation 1.25 2.24  
Sea Level Pressure  
Sea Level Pressure 30.02 in    
Wind  
Wind Speed 1 mph (NNE)    
Max Wind Speed 6 mph    
Max Gust Speed 7 mph    
Visibility 3 miles    
Events Fog , Rain , Snow    
T = Trace of Precipitation, MM = Missing Value Source: NWS Daily Summary

Daily Weather History Graph

Daily Weather History Graph

Search for Another Location

Airport:

Trip Planner

Search our weather history database for the weather conditions in past years. The results will help you decide how hot, cold, wet, or windy it might be!

Date:

Astronomy

Jan. 25, 2013 Rise Set
Actual Time 7:25 AM PST 4:39 PM PST
Civil Twilight 6:51 AM PST 5:13 PM PST
Nautical Twilight 6:13 AM PST 5:51 PM PST
Astronomical Twilight 5:36 AM PST 6:27 PM PST
Moon 3:41 PM PST (1/25) 6:08 AM PST (1/25)
Length of Visible Light 10h 22m
Length of Day
9h 14m
Waxing Gibbous, 98% of the Moon is Illuminated
Jan 25
Waxing Gibbous
Jan 26
Full
Feb 3
Last Quarter
Feb 9
New
Feb 17
First Quarter

Hourly Weather History & Observations

Time (PST) Temp. Windchill Dew Point Humidity Pressure Visibility Wind Dir Wind Speed Gust Speed Precip Events Conditions
12:09 AM 30.2 °F - 28.4 °F 93% 30.13 in 2.5 mi Calm Calm - 0.00 in Snow Light Snow
12:23 AM 30.2 °F - 28.4 °F 93% 30.13 in 3.0 mi Calm Calm - 0.00 in Snow Light Snow
12:53 AM 30.0 °F 26.5 °F 28.9 °F 96% 30.19 in 4.0 mi North 3.5 mph - 0.00 in Snow Light Snow
1:28 AM 30.2 °F 25.4 °F 28.4 °F 93% 30.11 in 3.0 mi NNE 4.6 mph - 0.00 in Rain Light Freezing Rain
1:53 AM 30.9 °F 27.5 °F 30.0 °F 96% 30.17 in 4.0 mi NNE 3.5 mph - 0.00 in Rain Light Freezing Rain
2:08 AM 30.2 °F 26.7 °F 30.2 °F 100% 30.11 in 3.0 mi NNW 3.5 mph - 0.00 in Rain Light Freezing Rain
2:53 AM 30.9 °F 26.2 °F 30.0 °F 96% 30.16 in 4.0 mi North 4.6 mph - 0.00 in Rain Light Freezing Rain
3:51 AM 32.0 °F 28.7 °F 30.2 °F 93% 30.08 in 4.0 mi North 3.5 mph - 0.00 in   Overcast
3:53 AM 32.0 °F 28.7 °F 30.9 °F 96% 30.14 in 4.0 mi North 3.5 mph - 0.00 in   Overcast
4:21 AM 32.0 °F 28.7 °F 30.2 °F 93% 30.08 in 3.0 mi NE 3.5 mph - 0.00 in Rain Light Freezing Rain
4:53 AM 32.0 °F 28.7 °F 30.9 °F 96% 30.14 in 6.0 mi NNE 3.5 mph - 0.00 in   Overcast
5:53 AM 32.0 °F 28.7 °F 30.9 °F 96% 30.13 in 3.0 mi ENE 3.5 mph - N/A   Overcast
6:32 AM 32.0 °F - 30.2 °F 93% 30.07 in 9.0 mi Calm Calm - N/A   Overcast
6:53 AM 32.0 °F - 32.0 °F 100% 30.13 in 8.0 mi Calm Calm - N/A   Overcast
7:53 AM 33.1 °F - 32.0 °F 96% 30.13 in 8.0 mi Calm Calm - N/A   Overcast
8:25 AM 33.8 °F - 30.2 °F 87% 30.06 in 9.0 mi Calm Calm - N/A   Overcast
8:53 AM 33.1 °F - 32.0 °F 96% 30.13 in 7.0 mi Calm Calm - N/A   Overcast
9:10 AM 33.8 °F - 32.0 °F 93% 30.06 in 1.8 mi Calm Calm - N/A   Overcast
9:21 AM 32.0 °F - 32.0 °F 100% 30.06 in 1.8 mi Calm Calm - N/A   Overcast
9:32 AM 33.8 °F - 33.8 °F 100% 30.06 in 2.5 mi Calm Calm - N/A   Overcast
9:40 AM 33.8 °F - 32.0 °F 93% 30.06 in 1.8 mi Calm Calm - N/A   Overcast
9:53 AM 33.1 °F - 32.0 °F 96% 30.12 in 1.5 mi Calm Calm - N/A   Overcast
10:12 AM 33.8 °F - 32.0 °F 93% 30.06 in 1.2 mi Calm Calm - N/A   Overcast
10:25 AM 33.8 °F - 33.8 °F 100% 30.06 in 3.0 mi Calm Calm - N/A   Overcast
10:53 AM 33.1 °F - 33.1 °F 100% 30.11 in 5.0 mi Calm Calm - N/A   Overcast
11:34 AM 33.8 °F 30.8 °F 32.0 °F 93% 30.03 in 8.0 mi NNW 3.5 mph - N/A   Overcast
11:53 AM 34.0 °F - 33.1 °F 96% 30.09 in 7.0 mi Calm Calm - N/A   Overcast
12:53 PM 35.1 °F 32.2 °F 34.0 °F 96% 30.06 in 7.0 mi North 3.5 mph - N/A   Overcast
1:44 PM 35.6 °F - 35.6 °F 100% 29.99 in 5.0 mi Calm Calm - N/A   Overcast
1:53 PM 36.0 °F - 35.1 °F 97% 30.05 in 5.0 mi Calm Calm - N/A   Overcast
2:51 PM 35.6 °F - 33.8 °F 93% 29.97 in 2.5 mi Calm Calm - N/A   Overcast
2:53 PM 35.1 °F - 34.0 °F 96% 30.03 in 3.0 mi Calm Calm - N/A   Overcast
3:14 PM 35.6 °F - 35.6 °F 100% 29.97 in 2.5 mi Calm Calm - N/A   Overcast
3:26 PM 33.8 °F - 33.8 °F 100% 29.97 in 0.8 mi Calm Calm - N/A   Overcast
3:53 PM 34.0 °F - 34.0 °F 100% 30.02 in 0.5 mi Calm Calm - N/A Fog Fog
4:09 PM 33.8 °F - 33.8 °F 100% 29.96 in 0.2 mi Calm Calm - N/A Fog Fog
4:53 PM 34.0 °F - 34.0 °F 100% 30.01 in 0.5 mi Calm Calm - 0.01 in Fog Fog
5:06 PM 33.8 °F 30.8 °F 33.8 °F 100% 29.95 in 1.0 mi NNW 3.5 mph - 0.01 in   Mist
5:33 PM 33.8 °F - 33.8 °F 100% 29.94 in 1.0 mi Calm Calm - 0.03 in Rain Light Rain
5:53 PM 34.0 °F - 34.0 °F 100% 30.00 in 1.0 mi Calm Calm - 0.05 in Rain Light Rain
6:44 PM 33.8 °F - 33.8 °F 100% 29.93 in 2.5 mi Calm Calm - 0.02 in   Overcast
6:53 PM 34.0 °F 31.0 °F 33.1 °F 96% 29.99 in 1.2 mi ENE 3.5 mph - 0.02 in Rain Light Rain
7:03 PM 33.8 °F - 33.8 °F 100% 29.94 in 1.2 mi Calm Calm - 0.01 in   Overcast
7:22 PM 33.8 °F - 33.8 °F 100% 29.93 in 0.8 mi Calm Calm - 0.02 in Rain Light Rain
7:42 PM 33.8 °F 30.8 °F 33.8 °F 100% 29.93 in 1.0 mi North 3.5 mph - 0.03 in   Overcast
7:53 PM 34.0 °F - 34.0 °F 100% 29.98 in 1.8 mi Calm Calm - 0.03 in   Overcast
8:03 PM 33.8 °F - 33.8 °F 100% 29.93 in 2.5 mi Calm Calm - 0.01 in Rain Light Rain
8:08 PM 33.8 °F - 33.8 °F 100% 29.93 in 1.8 mi Calm Calm - 0.02 in Rain Rain
8:20 PM 33.8 °F - 33.8 °F 100% 29.92 in 1.0 mi Calm Calm - 0.02 in   Overcast
8:31 PM 33.8 °F - 33.8 °F 100% 29.92 in 1.0 mi Calm Calm - 0.02 in   Overcast
8:49 PM 33.8 °F 30.8 °F 33.8 °F 100% 29.92 in 2.0 mi NNE 3.5 mph - 0.02 in   Overcast
8:53 PM 34.0 °F - 34.0 °F 100% 29.98 in 2.5 mi Calm Calm - 0.03 in   Overcast
9:29 PM 35.6 °F - 33.8 °F 93% 29.92 in 2.0 mi Calm Calm - 0.00 in   Overcast
9:36 PM 33.8 °F - 33.8 °F 100% 29.92 in 1.0 mi Calm Calm - 0.00 in   Overcast
9:53 PM 34.0 °F 31.0 °F 33.1 °F 96% 29.96 in 0.8 mi NE 3.5 mph - 0.00 in   Overcast
10:04 PM 33.8 °F 29.6 °F 33.8 °F 100% 29.90 in 1.2 mi NE 4.6 mph - 0.00 in   Overcast
10:37 PM 33.8 °F - 33.8 °F 100% 29.91 in 0.5 mi Calm Calm - 0.00 in Fog Fog
10:53 PM 34.0 °F - 34.0 °F 100% 29.96 in 0.5 mi Calm Calm - 0.00 in Fog Fog
11:34 PM 33.8 °F - 33.8 °F 100% 29.90 in 1.2 mi Calm Calm - N/A   Overcast
11:53 PM 34.0 °F - 34.0 °F 100% 29.94 in 1.5 mi Calm Calm - N/A   Overcast